"Sample Date","Sample Time","Sample Value","Units","Flow Rate","Sample Interval","Number Channels","Micron Size 0","Counts/Channel 0","Micron Size 1","Counts/Channel 1","Micron Size 2","Counts/Channel 2","Micron Size 3","Counts/Channel 3","Micron Size 4","Counts/Channel 4","Micron Size 5","Counts/Channel 5","Micron Size 6","Counts/Channel 6","Micron Size 7","Counts/Channel 7","Micron Size 8","Counts/Channel 8","Micron Size 9","Counts/Channel 9","Micron Size 10","Counts/Channel 10","Micron Size 11","Counts/Channel 11","Micron Size 12","Counts/Channel 12","Micron Size 13","Counts/Channel 13","Micron Size 14","Counts/Channel 14","Micron Size 15","Counts/Channel 15","Micron Size 16","Counts/Channel 16","Micron Size 17","Counts/Channel 17","Micron Size 18","Counts/Channel 18","Micron Size 19","Counts/Channel 19","Micron Size 20","Counts/Channel 20","Micron Size 21","Counts/Channel 21","Micron Size 22","Counts/Channel 22","Micron Size 23","Counts/Channel 23","Micron Size 24","Counts/Channel 24","Micron Size 25","Counts/Channel 25","Micron Size 26","Counts/Channel 26","Micron Size 27","Counts/Channel 27","Micron Size 28","Counts/Channel 28","Micron Size 29","Counts/Channel 29","Micron Size 30","Counts/Channel 30","Micron Size 31","Counts/Channel 31"
"03/05/08","17:00:05",38137.000,"cc",28363.604,6.00,6,0.100,31282.000,0.200,4123.000,0.300,1168.000,0.500,1156.000,1.000,408.000,5.000,0
"03/05/08","17:00:11",38144.000,"cc",28226.844,6.00,6,0.100,31304.000,0.200,4138.000,0.300,1116.000,0.500,1179.000,1.000,407.000,5.000,0
"03/05/08","17:00:17",38065.000,"cc",28364.371,6.00,6,0.100,31299.000,0.200,3927.000,0.300,1172.000,0.500,1216.000,1.000,451.000,5.000,0
"03/05/08","17:00:23",38837.000,"cc",28308.627,6.00,6,0.100,32041.000,0.200,4062.000,0.300,1091.000,0.500,1208.000,1.000,435.000,5.000,0
"03/05/08","17:00:29",38353.000,"cc",28421.092,6.00,6,0.100,31255.000,0.200,4073.000,0.300,1243.000,0.500,1332.000,1.000,450.000,5.000,0
"03/05/08","17:00:35",37736.000,"cc",28280.322,6.00,6,0.100,30897.000,0.200,4063.000,0.300,1166.000,0.500,1207.000,1.000,403.000,5.000,0
"03/05/08","17:00:41",38418.000,"cc",28314.643,6.00,6,0.100,31629.000,0.200,4015.000,0.300,1182.000,0.500,1129.000,1.000,463.000,5.000,0
"03/05/08","17:00:47",38128.000,"cc",28240.897,6.00,6,0.100,31469.000,0.200,4142.000,0.300,1057.000,0.500,1081.000,1.000,379.000,5.000,0
"03/05/08","17:00:53",38236.000,"cc",28296.494,6.00,6,0.100,31623.000,0.200,3968.000,0.300,1076.000,0.500,1162.000,1.000,407.000,5.000,0
"03/05/08","17:00:59",38435.000,"cc",28305.660,6.00,6,0.100,31610.000,0.200,4108.000,0.300,1136.000,0.500,1145.000,1.000,436.000,5.000,0
"03/05/08","17:01:05",38316.000,"cc",28180.537,6.00,6,0.100,31640.000,0.200,3994.000,0.300,1103.000,0.500,1154.000,1.000,425.000,5.000,0
"03/05/08","17:01:11",38577.000,"cc",28446.902,6.00,6,0.100,31883.000,0.200,4015.000,0.300,1104.000,0.500,1167.000,1.000,408.000,5.000,0
"03/05/08","17:01:17",38242.000,"cc",28338.174,6.00,6,0.100,31654.000,0.200,3971.000,0.300,1013.000,0.500,1200.000,1.000,404.000,5.000,0
"03/05/08","17:01:23",38313.000,"cc",28335.443,6.00,6,0.100,31274.000,0.200,4179.000,0.300,1163.000,0.500,1237.000,1.000,460.000,5.000,0
"03/05/08","17:01:29",38129.000,"cc",28314.647,6.00,6,0.100,31371.000,0.200,3961.000,0.300,1161.000,0.500,1204.000,1.000,432.000,5.000,0
"03/05/08","17:01:35",38329.000,"cc",28350.815,6.00,6,0.100,31371.000,0.200,4182.000,0.300,1130.000,0.500,1212.000,1.000,434.000,5.000,0
"03/05/08","17:01:41",38566.000,"cc",28279.697,6.00,6,0.100,31583.000,0.200,4055.000,0.300,1193.000,0.500,1299.000,1.000,436.000,5.000,0
"03/05/08","17:01:47",38269.000,"cc",28389.160,6.00,6,0.100,31237.000,0.200,4046.000,0.300,1209.000,0.500,1284.000,1.000,493.000,5.000,0
"03/05/08","17:01:53",38098.000,"cc",28294.666,6.00,6,0.100,31437.000,0.200,3981.000,0.300,1056.000,0.500,1161.000,1.000,463.000,5.000,0
"03/05/08","17:01:59",37876.000,"cc",28242.744,6.00,6,0.100,31126.000,0.200,4095.000,0.300,1118.000,0.500,1148.000,1.000,389.000,5.000,0
"03/05/08","17:02:05",38333.000,"cc",28356.234,6.00,6,0.100,31368.000,0.200,4130.000,0.300,1156.000,0.500,1260.000,1.000,419.000,5.000,0
"03/05/08","17:02:11",38426.000,"cc",28346.920,6.00,6,0.100,31163.000,0.200,4179.000,0.300,1284.000,0.500,1343.000,1.000,457.000,5.000,0
"03/05/08","17:02:17",38110.000,"cc",28292.859,6.00,6,0.100,31188.000,0.200,4151.000,0.300,1153.000,0.500,1176.000,1.000,442.000,5.000,0
"03/05/08","17:02:23",38325.000,"cc",28351.400,6.00,6,0.100,31314.000,0.200,4128.000,0.300,1207.000,0.500,1222.000,1.000,454.000,5.000,0
"03/05/08","17:02:29",38543.000,"cc",28290.932,6.00,6,0.100,31451.000,0.200,4021.000,0.300,1294.000,0.500,1329.000,1.000,448.000,5.000,0
"03/05/08","17:02:35",38123.000,"cc",28299.813,6.00,6,0.100,31197.000,0.200,4037.000,0.300,1172.000,0.500,1277.000,1.000,440.000,5.000,0
"03/05/08","17:02:41",38467.000,"cc",28299.803,6.00,6,0.100,31619.000,0.200,3912.000,0.300,1177.000,0.500,1294.000,1.000,465.000,5.000,0
"03/05/08","17:02:47",38828.000,"cc",28352.965,6.00,6,0.100,31649.000,0.200,4081.000,0.300,1232.000,0.500,1363.000,1.000,503.000,5.000,0
"03/05/08","17:02:53",38310.000,"cc",28278.447,6.00,6,0.100,31375.000,0.200,3903.000,0.300,1251.000,0.500,1312.000,1.000,469.000,5.000,0
"03/05/08","17:02:59",38793.000,"cc",28259.213,6.00,6,0.100,31778.000,0.200,4046.000,0.300,1234.000,0.500,1265.000,1.000,470.000,5.000,0
"03/05/08","17:03:05",38564.000,"cc",28317.057,6.00,6,0.100,31529.000,0.200,4074.000,0.300,1222.000,0.500,1311.000,1.000,428.000,5.000,0
"03/05/08","17:03:11",38332.000,"cc",28301.625,6.00,6,0.100,31374.000,0.200,4000.000,0.300,1213.000,0.500,1301.000,1.000,444.000,5.000,0
"03/05/08","17:03:17",38437.000,"cc",28353.740,6.00,6,0.100,31738.000,0.200,3924.000,0.300,1142.000,0.500,1206.000,1.000,427.000,5.000,0
"03/05/08","17:03:23",38284.000,"cc",28264.557,6.00,6,0.100,31251.000,0.200,4095.000,0.300,1193.000,0.500,1301.000,1.000,444.000,5.000,0
"03/05/08","17:03:29",38558.000,"cc",28360.713,6.00,6,0.100,31409.000,0.200,4076.000,0.300,1260.000,0.500,1374.000,1.000,439.000,5.000,0
"03/05/08","17:03:35",38169.000,"cc",28396.570,6.00,6,0.100,31250.000,0.200,4000.000,0.300,1192.000,0.500,1258.000,1.000,469.000,5.000,0
"03/05/08","17:03:41",37536.000,"cc",28229.576,6.00,6,0.100,30859.000,0.200,4031.000,0.300,1078.000,0.500,1171.000,1.000,397.000,5.000,0
"03/05/08","17:03:47",37615.000,"cc",28265.277,6.00,6,0.100,30877.000,0.200,4060.000,0.300,1103.000,0.500,1163.000,1.000,412.000,5.000,0
"03/05/08","17:03:53",37287.000,"cc",28351.104,6.00,6,0.100,30740.000,0.200,4020.000,0.300,1112.000,0.500,1062.000,1.000,353.000,5.000,0
"03/05/08","17:03:59",36985.000,"cc",28273.367,6.00,6,0.100,30643.000,0.200,3985.000,0.300,983.000,0.500,1004.000,1.000,370.000,5.000,0
"03/05/08","17:04:05",37345.000,"cc",28278.471,6.00,6,0.100,30588.000,0.200,4113.000,0.300,1103.000,0.500,1125.000,1.000,416.000,5.000,0
"03/05/08","17:04:11",37631.000,"cc",28333.522,6.00,6,0.100,30938.000,0.200,4066.000,0.300,1031.000,0.500,1190.000,1.000,406.000,5.000,0
"03/05/08","17:04:17",37624.000,"cc",28242.606,6.00,6,0.100,30902.000,0.200,4139.000,0.300,1062.000,0.500,1139.000,1.000,382.000,5.000,0
"03/05/08","17:04:23",37414.000,"cc",28335.828,6.00,6,0.100,30448.000,0.200,4288.000,0.300,1164.000,0.500,1138.000,1.000,376.000,5.000,0
"03/05/08","17:04:29",37371.000,"cc",28350.908,6.00,6,0.100,30841.000,0.200,4022.000,0.300,1043.000,0.500,1112.000,1.000,353.000,5.000,0
"03/05/08","17:04:35",36627.000,"cc",28284.746,6.00,6,0.100,30104.000,0.200,4038.000,0.300,987.000,0.500,1133.000,1.000,365.000,5.000,0
"03/05/08","17:04:41",37350.000,"cc",28328.891,6.00,6,0.100,30664.000,0.200,4114.000,0.300,1123.000,0.500,1074.000,1.000,375.000,5.000,0
"03/05/08","17:04:47",37457.000,"cc",28268.785,6.00,6,0.100,30591.000,0.200,4182.000,0.300,1118.000,0.500,1175.000,1.000,391.000,5.000,0
"03/05/08","17:04:53",37913.000,"cc",28338.555,6.00,6,0.100,30865.000,0.200,4266.000,0.300,1169.000,0.500,1156.000,1.000,457.000,5.000,0
"03/05/08","17:04:59",37541.000,"cc",28413.578,6.00,6,0.100,30701.000,0.200,4085.000,0.300,1090.000,0.500,1254.000,1.000,411.000,5.000,0
"03/05/08","17:05:05",37592.000,"cc",28317.963,6.00,6,0.100,30754.000,0.200,4060.000,0.300,1140.000,0.500,1209.000,1.000,429.000,5.000,0
"03/05/08","17:05:11",37208.000,"cc",28250.889,6.00,6,0.100,30470.000,0.200,4068.000,0.300,1139.000,0.500,1146.000,1.000,385.000,5.000,0
"03/05/08","17:05:17",37327.000,"cc",28228.217,6.00,6,0.100,30501.000,0.200,4065.000,0.300,1073.000,0.500,1214.000,1.000,474.000,5.000,0
"03/05/08","17:05:23",37675.000,"cc",28333.213,6.00,6,0.100,30763.000,0.200,4129.000,0.300,1175.000,0.500,1179.000,1.000,429.000,5.000,0
"03/05/08","17:05:29",37514.000,"cc",28404.195,6.00,6,0.100,30688.000,0.200,4081.000,0.300,1141.000,0.500,1170.000,1.000,434.000,5.000,0
"03/05/08","17:05:35",37350.000,"cc",28388.807,6.00,6,0.100,30512.000,0.200,4149.000,0.300,1079.000,0.500,1179.000,1.000,431.000,5.000,0
"03/05/08","17:05:41",36798.000,"cc",28311.971,6.00,6,0.100,29972.000,0.200,4158.000,0.300,1105.000,0.500,1153.000,1.000,410.000,5.000,0
"03/05/08","17:05:47",36782.000,"cc",28281.852,6.00,6,0.100,30014.000,0.200,4141.000,0.300,1058.000,0.500,1196.000,1.000,373.000,5.000,0
"03/05/08","17:05:53",37220.000,"cc",28228.365,6.00,6,0.100,30169.000,0.200,4295.000,0.300,1144.000,0.500,1182.000,1.000,430.000,5.000,0
"03/05/08","17:05:59",36628.000,"cc",28475.801,6.00,6,0.100,29751.000,0.200,4319.000,0.300,1036.000,0.500,1162.000,1.000,360.000,5.000,0
"03/05/08","17:06:05",36524.000,"cc",28305.352,6.00,6,0.100,29934.000,0.200,4124.000,0.300,1034.000,0.500,1070.000,1.000,362.000,5.000,0
"03/05/08","17:06:11",36529.000,"cc",28309.049,6.00,6,0.100,29946.000,0.200,4224.000,0.300,976.000,0.500,1051.000,1.000,332.000,5.000,0
"03/05/08","17:06:17",36389.000,"cc",28271.416,6.00,6,0.100,29668.000,0.200,4333.000,0.300,999.000,0.500,1027.000,1.000,362.000,5.000,0
"03/05/08","17:06:23",37003.000,"cc",28310.522,6.00,6,0.100,30380.000,0.200,4177.000,0.300,1033.000,0.500,1062.000,1.000,351.000,5.000,0
"03/05/08","17:06:29",37226.000,"cc",28368.115,6.00,6,0.100,30710.000,0.200,4307.000,0.300,908.000,0.500,953.000,1.000,348.000,5.000,0
"03/05/08","17:06:35",37299.000,"cc",28250.875,6.00,6,0.100,30664.000,0.200,4315.000,0.300,979.000,0.500,1004.000,1.000,337.000,5.000,0
"03/05/08","17:06:41",37162.000,"cc",28350.482,6.00,6,0.100,30473.000,0.200,4288.000,0.300,1043.000,0.500,1029.000,1.000,329.000,5.000,0
"03/05/08","17:06:47",37251.000,"cc",28331.664,6.00,6,0.100,30528.000,0.200,4213.000,0.300,1038.000,0.500,1085.000,1.000,387.000,5.000,0
"03/05/08","17:06:53",36936.000,"cc",28303.301,6.00,6,0.100,30113.000,0.200,4289.000,0.300,1053.000,0.500,1094.000,1.000,387.000,5.000,0
"03/05/08","17:06:59",37138.000,"cc",28275.875,6.00,6,0.100,30257.000,0.200,4292.000,0.300,1065.000,0.500,1115.000,1.000,409.000,5.000,0
"03/05/08","17:07:05",36526.000,"cc",28341.316,6.00,6,0.100,29704.000,0.200,4318.000,0.300,1056.000,0.500,1067.000,1.000,381.000,5.000,0
"03/05/08","17:07:11",36915.000,"cc",28223.316,6.00,6,0.100,30214.000,0.200,4174.000,0.300,1041.000,0.500,1082.000,1.000,404.000,5.000,0
"03/05/08","17:07:17",37146.000,"cc",28194.033,6.00,6,0.100,30520.000,0.200,4141.000,0.300,1056.000,0.500,1054.000,1.000,375.000,5.000,0
"03/05/08","17:07:23",36977.000,"cc",28417.545,6.00,6,0.100,30104.000,0.200,4255.000,0.300,1106.000,0.500,1127.000,1.000,385.000,5.000,0
"03/05/08","17:07:29",37207.000,"cc",28391.365,6.00,6,0.100,30411.000,0.200,4281.000,0.300,1045.000,0.500,1100.000,1.000,370.000,5.000,0
"03/05/08","17:07:35",37039.000,"cc",28325.072,6.00,6,0.100,30239.000,0.200,4250.000,0.300,1061.000,0.500,1088.000,1.000,401.000,5.000,0
"03/05/08","17:07:41",36886.000,"cc",28325.219,6.00,6,0.100,30231.000,0.200,4204.000,0.300,1019.000,0.500,1053.000,1.000,379.000,5.000,0
"03/05/08","17:07:47",36927.000,"cc",28359.002,6.00,6,0.100,30428.000,0.200,4101.000,0.300,978.000,0.500,1042.000,1.000,378.000,5.000,0
"03/05/08","17:07:53",36745.000,"cc",28277.615,6.00,6,0.100,30243.000,0.200,4149.000,0.300,1005.000,0.500,1000.000,1.000,348.000,5.000,0
"03/05/08","17:07:59",37011.000,"cc",28333.436,6.00,6,0.100,30365.000,0.200,4164.000,0.300,1059.000,0.500,1047.000,1.000,376.000,5.000,0
"03/05/08","17:08:05",36449.000,"cc",28284.740,6.00,6,0.100,29887.000,0.200,4208.000,0.300,1008.000,0.500,976.000,1.000,370.000,5.000,0
"03/05/08","17:08:11",36619.000,"cc",28281.143,6.00,6,0.100,29859.000,0.200,4208.000,0.300,1097.000,0.500,1119.000,1.000,336.000,5.000,0
"03/05/08","17:08:17",37114.000,"cc",28328.707,6.00,6,0.100,30297.000,0.200,4287.000,0.300,1091.000,0.500,1108.000,1.000,331.000,5.000,0
"03/05/08","17:08:23",36967.000,"cc",28299.266,6.00,6,0.100,30124.000,0.200,4354.000,0.300,999.000,0.500,1108.000,1.000,382.000,5.000,0
"03/05/08","17:08:29",36562.000,"cc",28324.922,6.00,6,0.100,29730.000,0.200,4219.000,0.300,1075.000,0.500,1116.000,1.000,422.000,5.000,0
"03/05/08","17:08:35",37149.000,"cc",28298.541,6.00,6,0.100,30532.000,0.200,4180.000,0.300,1006.000,0.500,1061.000,1.000,370.000,5.000,0
"03/05/08","17:08:41",37534.000,"cc",28316.356,6.00,6,0.100,30459.000,0.200,4339.000,0.300,1163.000,0.500,1170.000,1.000,403.000,5.000,0
"03/05/08","17:08:47",36924.000,"cc",28278.143,6.00,6,0.100,30021.000,0.200,4301.000,0.300,1109.000,0.500,1102.000,1.000,391.000,5.000,0
"03/05/08","17:08:53",37278.000,"cc",28347.557,6.00,6,0.100,30426.000,0.200,4309.000,0.300,1060.000,0.500,1118.000,1.000,365.000,5.000,0
"03/05/08","17:08:59",37121.000,"cc",28365.912,6.00,6,0.100,30366.000,0.200,4258.000,0.300,1042.000,0.500,1086.000,1.000,369.000,5.000,0
"03/05/08","17:09:05",36782.000,"cc",28386.338,6.00,6,0.100,30150.000,0.200,4148.000,0.300,1021.000,0.500,1113.000,1.000,350.000,5.000,0
"03/05/08","17:09:11",37026.000,"cc",28305.027,6.00,6,0.100,30197.000,0.200,4217.000,0.300,1077.000,0.500,1135.000,1.000,400.000,5.000,0
"03/05/08","17:09:17",37191.000,"cc",28253.246,6.00,6,0.100,30223.000,0.200,4388.000,0.300,1037.000,0.500,1138.000,1.000,405.000,5.000,0
"03/05/08","17:09:23",37097.000,"cc",28358.770,6.00,6,0.100,30305.000,0.200,4160.000,0.300,1100.000,0.500,1134.000,1.000,398.000,5.000,0
"03/05/08","17:09:29",37787.000,"cc",28344.180,6.00,6,0.100,30623.000,0.200,4307.000,0.300,1161.000,0.500,1270.000,1.000,426.000,5.000,0
"03/05/08","17:09:35",37595.000,"cc",28310.750,6.00,6,0.100,30581.000,0.200,4317.000,0.300,1115.000,0.500,1154.000,1.000,428.000,5.000,0
"03/05/08","17:09:41",37173.000,"cc",28207.563,6.00,6,0.100,30254.000,0.200,4281.000,0.300,1103.000,0.500,1123.000,1.000,412.000,5.000,0
"03/05/08","17:09:47",37402.000,"cc",28267.549,6.00,6,0.100,30762.000,0.200,4183.000,0.300,1016.000,0.500,1042.000,1.000,399.000,5.000,0
"03/05/08","17:09:53",37345.000,"cc",28362.256,6.00,6,0.100,30451.000,0.200,4308.000,0.300,1067.000,0.500,1130.000,1.000,389.000,5.000,0
"03/05/08","17:09:59",37750.000,"cc",28319.871,6.00,6,0.100,30633.000,0.200,4409.000,0.300,1099.000,0.500,1181.000,1.000,428.000,5.000,0
"03/05/08","17:10:05",37794.000,"cc",28377.133,6.00,6,0.100,30866.000,0.200,4337.000,0.300,1094.000,0.500,1085.000,1.000,412.000,5.000,0
"03/05/08","17:10:11",37495.000,"cc",28359.068,6.00,6,0.100,30844.000,0.200,4144.000,0.300,1047.000,0.500,1057.000,1.000,403.000,5.000,0
"03/05/08","17:10:17",37473.000,"cc",28257.299,6.00,6,0.100,30695.000,0.200,4189.000,0.300,1052.000,0.500,1136.000,1.000,401.000,5.000,0
"03/05/08","17:10:23",38140.000,"cc",28285.586,6.00,6,0.100,31120.000,0.200,4252.000,0.300,1103.000,0.500,1220.000,1.000,445.000,5.000,0
"03/05/08","17:10:29",37592.000,"cc",28275.818,6.00,6,0.100,30847.000,0.200,4229.000,0.300,1100.000,0.500,1078.000,1.000,338.000,5.000,0
"03/05/08","17:10:35",37852.000,"cc",28396.609,6.00,6,0.100,30959.000,0.200,4175.000,0.300,1157.000,0.500,1161.000,1.000,400.000,5.000,0
"03/05/08","17:10:41",37783.000,"cc",28322.246,6.00,6,0.100,30948.000,0.200,4133.000,0.300,1119.000,0.500,1166.000,1.000,417.000,5.000,0
"03/05/08","17:10:47",38103.000,"cc",28320.807,6.00,6,0.100,31231.000,0.200,4168.000,0.300,1136.000,0.500,1157.000,1.000,411.000,5.000,0
"03/05/08","17:10:53",37686.000,"cc",28366.719,6.00,6,0.100,30758.000,0.200,4262.000,0.300,1072.000,0.500,1178.000,1.000,416.000,5.000,0
"03/05/08","17:10:59",37852.000,"cc",28279.272,6.00,6,0.100,30867.000,0.200,4265.000,0.300,1129.000,0.500,1208.000,1.000,383.000,5.000,0
"03/05/08","17:11:05",38693.000,"cc",28266.729,6.00,6,0.100,31593.000,0.200,4301.000,0.300,1093.000,0.500,1259.000,1.000,447.000,5.000,0
"03/05/08","17:11:11",37666.000,"cc",28301.693,6.00,6,0.100,30742.000,0.200,4226.000,0.300,1142.000,0.500,1134.000,1.000,422.000,5.000,0
"03/05/08","17:11:17",37891.000,"cc",28398.436,6.00,6,0.100,30934.000,0.200,4109.000,0.300,1136.000,0.500,1274.000,1.000,438.000,5.000,0
"03/05/08","17:11:23",38042.000,"cc",28216.365,6.00,6,0.100,30980.000,0.200,4308.000,0.300,1152.000,0.500,1200.000,1.000,402.000,5.000,0
"03/05/08","17:11:29",37893.000,"cc",28335.936,6.00,6,0.100,30985.000,0.200,4255.000,0.300,1113.000,0.500,1138.000,1.000,402.000,5.000,0
"03/05/08","17:11:35",37389.000,"cc",28367.065,6.00,6,0.100,30638.000,0.200,4133.000,0.300,1067.000,0.500,1144.000,1.000,407.000,5.000,0
"03/05/08","17:11:41",37733.000,"cc",28394.008,6.00,6,0.100,30661.000,0.200,4311.000,0.300,1121.000,0.500,1213.000,1.000,427.000,5.000,0
"03/05/08","17:11:47",37277.000,"cc",28326.016,6.00,6,0.100,30596.000,0.200,4142.000,0.300,1028.000,0.500,1104.000,1.000,407.000,5.000,0
"03/05/08","17:11:53",37174.000,"cc",28275.856,6.00,6,0.100,30556.000,0.200,4199.000,0.300,1029.000,0.500,1014.000,1.000,376.000,5.000,0
"03/05/08","17:11:59",37234.000,"cc",28226.815,6.00,6,0.100,30693.000,0.200,4128.000,0.300,986.000,0.500,1067.000,1.000,360.000,5.000,0
"03/05/08","17:12:05",37557.000,"cc",28301.674,6.00,6,0.100,30747.000,0.200,4201.000,0.300,1074.000,0.500,1144.000,1.000,391.000,5.000,0
"03/05/08","17:12:11",37624.000,"cc",28331.137,6.00,6,0.100,30695.000,0.200,4314.000,0.300,1103.000,0.500,1116.000,1.000,396.000,5.000,0
"03/05/08","17:12:17",37331.000,"cc",28392.176,6.00,6,0.100,30820.000,0.200,4139.000,0.300,981.000,0.500,1036.000,1.000,355.000,5.000,0
"03/05/08","17:12:23",37099.000,"cc",28305.291,6.00,6,0.100,30587.000,0.200,4085.000,0.300,1024.000,0.500,1042.000,1.000,361.000,5.000,0
"03/05/08","17:12:29",37698.000,"cc",28363.191,6.00,6,0.100,30994.000,0.200,4195.000,0.300,1031.000,0.500,1093.000,1.000,385.000,5.000,0
"03/05/08","17:12:35",37280.000,"cc",28279.418,6.00,6,0.100,30793.000,0.200,4057.000,0.300,1006.000,0.500,1057.000,1.000,367.000,5.000,0
"03/05/08","17:12:41",37484.000,"cc",28286.686,6.00,6,0.100,30723.000,0.200,4293.000,0.300,1024.000,0.500,1066.000,1.000,378.000,5.000,0
"03/05/08","17:12:47",37688.000,"cc",28291.648,6.00,6,0.100,31006.000,0.200,4142.000,0.300,1037.000,0.500,1107.000,1.000,396.000,5.000,0
"03/05/08","17:12:53",37778.000,"cc",28373.422,6.00,6,0.100,30891.000,0.200,4271.000,0.300,1003.000,0.500,1178.000,1.000,435.000,5.000,0
"03/05/08","17:12:59",37808.000,"cc",28306.482,6.00,6,0.100,31019.000,0.200,4225.000,0.300,1088.000,0.500,1096.000,1.000,380.000,5.000,0
"03/05/08","17:13:05",37857.000,"cc",28324.629,6.00,6,0.100,30998.000,0.200,4199.000,0.300,1134.000,0.500,1137.000,1.000,389.000,5.000,0
"03/05/08","17:13:11",37302.000,"cc",28375.268,6.00,6,0.100,30599.000,0.200,4150.000,0.300,1065.000,0.500,1093.000,1.000,395.000,5.000,0
"03/05/08","17:13:17",36962.000,"cc",28370.201,6.00,6,0.100,30197.000,0.200,4251.000,0.300,1043.000,0.500,1081.000,1.000,390.000,5.000,0
"03/05/08","17:13:23",37461.000,"cc",28325.613,6.00,6,0.100,30667.000,0.200,4225.000,0.300,1056.000,0.500,1116.000,1.000,397.000,5.000,0
"03/05/08","17:13:29",37087.000,"cc",28296.365,6.00,6,0.100,30487.000,0.200,4093.000,0.300,1010.000,0.500,1125.000,1.000,372.000,5.000,0
"03/05/08","17:13:35",36875.000,"cc",28268.277,6.00,6,0.100,30238.000,0.200,4166.000,0.300,1035.000,0.500,1075.000,1.000,361.000,5.000,0
"03/05/08","17:13:41",37744.000,"cc",28330.469,6.00,6,0.100,30792.000,0.200,4369.000,0.300,1110.000,0.500,1085.000,1.000,388.000,5.000,0
"03/05/08","17:13:47",37855.000,"cc",28239.756,6.00,6,0.100,30976.000,0.200,4389.000,0.300,1054.000,0.500,1070.000,1.000,366.000,5.000,0
"03/05/08","17:13:53",37549.000,"cc",28308.824,6.00,6,0.100,30828.000,0.200,4262.000,0.300,1008.000,0.500,1092.000,1.000,359.000,5.000,0
"03/05/08","17:13:59",37434.000,"cc",28311.725,6.00,6,0.100,30865.000,0.200,4197.000,0.300,972.000,0.500,1048.000,1.000,352.000,5.000,0
"03/05/08","17:14:05",37505.000,"cc",28289.867,6.00,6,0.100,30773.000,0.200,4213.000,0.300,1058.000,0.500,1084.000,1.000,377.000,5.000,0
"03/05/08","17:14:11",37078.000,"cc",28283.090,6.00,6,0.100,30373.000,0.200,4190.000,0.300,1048.000,0.500,1068.000,1.000,399.000,5.000,0
"03/05/08","17:14:17",37478.000,"cc",28323.856,6.00,6,0.100,30727.000,0.200,4258.000,0.300,1026.000,0.500,1091.000,1.000,376.000,5.000,0
"03/05/08","17:14:23",37649.000,"cc",28298.522,6.00,6,0.100,30887.000,0.200,4311.000,0.300,985.000,0.500,1119.000,1.000,347.000,5.000,0
"03/05/08","17:14:29",37289.000,"cc",28273.897,6.00,6,0.100,30512.000,0.200,4304.000,0.300,1016.000,0.500,1054.000,1.000,403.000,5.000,0
"03/05/08","17:14:35",37522.000,"cc",28360.820,6.00,6,0.100,30669.000,0.200,4311.000,0.300,1117.000,0.500,1049.000,1.000,376.000,5.000,0
"03/05/08","17:14:41",37794.000,"cc",28333.881,6.00,6,0.100,30894.000,0.200,4285.000,0.300,1070.000,0.500,1156.000,1.000,389.000,5.000,0
"03/05/08","17:14:47",37749.000,"cc",28338.660,6.00,6,0.100,30725.000,0.200,4386.000,0.300,1103.000,0.500,1134.000,1.000,401.000,5.000,0
"03/05/08","17:14:53",37566.000,"cc",28361.539,6.00,6,0.100,30603.000,0.200,4254.000,0.300,1114.000,0.500,1179.000,1.000,416.000,5.000,0
"03/05/08","17:14:59",37381.000,"cc",28343.092,6.00,6,0.100,30435.000,0.200,4301.000,0.300,1069.000,0.500,1165.000,1.000,411.000,5.000,0
"03/05/08","17:15:05",37593.000,"cc",28350.674,6.00,6,0.100,30640.000,0.200,4220.000,0.300,1114.000,0.500,1217.000,1.000,402.000,5.000,0
"03/05/08","17:15:11",37568.000,"cc",28278.170,6.00,6,0.100,30660.000,0.200,4172.000,0.300,1137.000,0.500,1202.000,1.000,397.000,5.000,0
"03/05/08","17:15:17",37110.000,"cc",28267.188,6.00,6,0.100,30391.000,0.200,4160.000,0.300,1116.000,0.500,1072.000,1.000,371.000,5.000,0
"03/05/08","17:15:23",37543.000,"cc",28271.748,6.00,6,0.100,30553.000,0.200,4260.000,0.300,1132.000,0.500,1169.000,1.000,429.000,5.000,0
"03/05/08","17:15:29",37630.000,"cc",28306.254,6.00,6,0.100,30653.000,0.200,4274.000,0.300,1068.000,0.500,1199.000,1.000,436.000,5.000,0
"03/05/08","17:15:35",38463.000,"cc",28375.025,6.00,6,0.100,31312.000,0.200,4347.000,0.300,1196.000,0.500,1211.000,1.000,397.000,5.000,0
"03/05/08","17:15:41",37973.000,"cc",28374.047,6.00,6,0.100,30919.000,0.200,4308.000,0.300,1204.000,0.500,1140.000,1.000,402.000,5.000,0
"03/05/08","17:15:47",37592.000,"cc",28328.404,6.00,6,0.100,30738.000,0.200,4292.000,0.300,1053.000,0.500,1072.000,1.000,437.000,5.000,0
"03/05/08","17:15:53",37662.000,"cc",28270.857,6.00,6,0.100,30637.000,0.200,4286.000,0.300,1112.000,0.500,1167.000,1.000,460.000,5.000,0
"03/05/08","17:15:59",37460.000,"cc",28293.482,6.00,6,0.100,30597.000,0.200,4209.000,0.300,1090.000,0.500,1152.000,1.000,412.000,5.000,0
"03/05/08","17:16:05",37805.000,"cc",28374.414,6.00,6,0.100,30853.000,0.200,4187.000,0.300,1138.000,0.500,1201.000,1.000,426.000,5.000,0
"03/05/08","17:16:11",37288.000,"cc",28371.432,6.00,6,0.100,30542.000,0.200,4160.000,0.300,1082.000,0.500,1096.000,1.000,408.000,5.000,0
"03/05/08","17:16:17",37325.000,"cc",28275.963,6.00,6,0.100,30427.000,0.200,4206.000,0.300,1088.000,0.500,1195.000,1.000,409.000,5.000,0
"03/05/08","17:16:23",37465.000,"cc",28335.152,6.00,6,0.100,30577.000,0.200,4225.000,0.300,1093.000,0.500,1163.000,1.000,407.000,5.000,0